Location: Strada George Coșbuc
(47.6577°N, 23.5639°E)
Time: 06:30:56
(UTC+02:00)

ISS - Pass Details

Date: 24 July 2017
Orbit: 412 x 421 km, 51.6° (Epoch: 19 November)

Event Time Altitude Azimuth Distance (km) Brightness Sun altitude
Rises 21:56:59 0° 281° (W) 2,347 1.2 -7.2°
Reaches altitude 10° 21:59:09 10° 289° (WNW) 1,484 0.3 -7.5°
Drops below altitude 10° 22:05:29 10° 72° (ENE) 1,492 -1.3 -8.3°
Enters shadow 22:07:25 - 80° (E) 2,258 -0.4 -8.5°
Exits shadow 22:39:42 -68° 102° (ESE) 12,335 3.6 -12.3°
Maximum altitude 23:39:59 72° 21° (NNE) 442 -3.6 -18.1°
